Location: Błonie
(52.1971°N, 20.6200°E)
Time: 07:16:00
(UTC+02:00)

ISS - Visible Passes

Search period start: 27 May 2018 00:00
Search period end: 06 June 2018 00:00
Orbit: 402 x 407 km, 51.6° (Epoch: 27 May)

Date Brightness Start Highest point End Pass type
(mag) Time Alt. Az. Time Alt. Az. Time Alt. Az.
27 May -3.5 00:23:23 10° W 00:26:26 44° SSW 00:26:26 44° SSW visible
27 May -3.9 21:54:41 10° W 21:57:59 82° S 22:01:15 10° E visible
27 May -3.8 23:31:09 10° W 23:34:24 59° SSW 23:35:43 31° SE visible
28 May -1.3 01:08:03 10° W 01:08:20 11° W 01:08:20 11° W visible
28 May -3.9 22:38:57 10° W 22:42:13 73° S 22:45:05 13° ESE visible
29 May -2.5 00:15:34 10° W 00:17:43 25° SW 00:17:43 25° SW visible
29 May -3.9 21:46:44 10° W 21:50:01 81° S 21:53:18 10° E visible
29 May -3.3 23:23:14 10° W 23:26:20 39° SSW 23:27:06 33° SSE visible
30 May -3.7 22:30:58 10° W 22:34:11 54° SSW 22:36:31 17° SE visible
31 May -1.7 00:08:01 10° WSW 00:09:09 15° WSW 00:09:09 15° WSW visible
31 May -3.8 21:38:43 10° W 21:41:59 68° SSW 21:45:14 10° ESE visible
31 May -2.6 23:15:24 10° W 23:18:08 24° SSW 23:18:35 24° SSW visible
01 Jun -3.0 22:23:00 10° W 22:26:02 35° SSW 22:28:04 17° SSE visible
02 Jun -1.7 23:07:56 10° WSW 23:09:47 14° SW 23:10:11 14° SSW visible
03 Jun -2.2 22:15:08 10° W 22:17:43 21° SSW 22:19:41 13° S visible
05 Jun -1.4 22:07:51 10° WSW 22:09:15 12° SW 22:10:39 10° SSW visible
